FW6403 Weather Reports


Display with metric or nautical units.
time (UTC)temp
F
wind
direction
speed
MPH
gust
MPH
rain 1hr
in
rain 24hr
in
rain mn
in
humidity
%
barometer
mb
20260906104611 88 99 3.0 9.0 0.00 0.00 0.00 60 1022.0
20260906103107 88 60 2.0 8.0 0.00 0.00 0.00 62 1022.0
20260906101605 88 67 2.0 7.0 0.00 0.00 0.00 60 1022.2
20260906100112 87 11 3.0 9.0 0.00 0.00 0.00 62 1022.3
20260906094619 86 10 2.0 5.0 0.00 0.00 0.00 64 1022.4
20260906093110 85 47 1.0 6.0 0.00 0.00 0.00 63 1022.5
20260906091607 85 150 1.0 7.0 0.00 0.00 0.00 63 1022.4
20260906090120 84 126 3.0 8.0 0.00 0.00 0.00 63 1022.5
20260906084606 83 5 1.0 7.0 0.00 0.00 0.00 64 1022.4
20260906083105 83 90 2.0 6.0 0.00 0.00 0.00 67 1022.3
20260906081604 83 84 1.0 6.0 0.00 0.00 0.00 68 1022.3
20260906080123 82 111 1.0 8.0 0.00 0.00 0.00 69 1022.2
20260906074610 81 41 1.0 7.0 0.00 0.00 0.00 70 1022.1
20260906073105 81 0 1.0 6.0 0.00 0.00 0.00 70 1021.9
20260906071605 80 360 1.0 4.0 0.00 0.00 0.00 71 1021.8
20260906070121 79 360 1.0 4.0 0.00 0.00 0.00 73 1021.9
20260906064616 79 0 1.0 3.0 0.00 0.00 0.00 77 1021.8
20260906063128 78 0 0.0 0.0 0.00 0.00 0.00 79 1021.7
20260906061625 76 0 0.0 0.0 0.00 0.00 0.00 81 1021.5
20260906060108 74 0 0.0 0.0 0.00 0.00 0.00 83 1021.4
20260906054610 72 0 0.0 0.0 0.00 0.00 0.00 85 1021.3
20260906053106 72 0 0.0 0.0 0.00 0.00 0.00 85 1021.3
20260906051605 72 0 0.0 0.0 0.00 0.00 0.00 85 1021.0
20260906050107 72 0 0.0 0.0 0.00 0.00 0.00 85 1021.0
20260906044605 72 0 0.0 1.0 0.00 0.00 0.00 85 1020.8
20260906043104 72 0 0.0 1.0 0.00 0.00 0.00 85 1020.7
20260906041604 72 0 0.0 1.0 0.00 0.00 0.00 84 1020.6
20260906040106 72 0 0.0 1.0 0.00 0.00 0.00 86 1020.3
20260906034607 72 0 0.0 0.0 0.00 0.00 0.00 85 1020.0
20260906033107 73 0 0.0 0.0 0.00 0.00 0.00 85 1019.9
20260906031604 73 0 0.0 0.0 0.00 0.00 0.00 85 1020.0
20260906030109 73 0 0.0 0.0 0.00 0.00 0.00 84 1019.8
20260906024608 73 0 0.0 0.0 0.00 0.00 0.00 83 1019.9
20260906023103 73 0 0.0 0.0 0.00 0.00 0.00 83 1019.8
20260906021607 73 0 0.0 0.0 0.00 0.00 0.00 83 1019.8
20260906020112 74 0 0.0 0.0 0.00 0.00 0.00 82 1019.7
20260906014616 74 0 0.0 0.0 0.00 0.00 0.00 81 1019.6
20260906013108 75 0 0.0 2.0 0.00 0.00 0.00 80 1019.5
20260906011619 75 0 0.0 2.0 0.00 0.00 0.00 80 1019.5
20260906010105 75 0 0.0 2.0 0.00 0.00 0.00 79 1019.4
20260906004605 75 0 0.0 0.0 0.00 0.00 0.00 78 1019.2
20260906003110 75 0 0.0 2.0 0.00 0.00 0.00 77 1019.2
20260906001605 75 0 0.0 1.0 0.00 0.00 0.00 76 1019.3
20260906000105 76 0 0.0 1.0 0.00 0.00 0.00 75 1019.3
20260905234606 76 0 0.0 1.0 0.00 0.00 0.00 75 1019.2
20260905233134 76 0 0.0 1.0 0.00 0.00 0.00 74 1019.2
20260905231610 77 0 0.0 1.0 0.00 0.00 0.00 74 1019.1
20260905230108 77 0 0.0 0.0 0.00 0.00 0.00 74 1019.1
20260905224627 77 0 0.0 2.0 0.00 0.00 0.00 73 1018.8
20260905223108 78 0 0.0 1.0 0.00 0.00 0.00 71 1018.6
20260905221608 79 96 1.0 3.0 0.00 0.00 0.00 69 1018.5
20260905220107 79 94 0.0 4.0 0.00 0.00 0.00 68 1018.4
20260905214605 80 84 0.0 3.0 0.00 0.00 0.00 65 1018.2
20260905213103 81 0 0.0 3.0 0.00 0.00 0.00 64 1018.1
20260905211609 82 127 1.0 3.0 0.00 0.00 0.00 61 1017.9
20260905210108 82 89 0.0 4.0 0.00 0.00 0.00 59 1017.6
20260905204608 83 104 1.0 3.0 0.00 0.00 0.00 58 1017.5
20260905203108 83 0 1.0 4.0 0.00 0.00 0.00 57 1017.5
20260905201614 83 0 1.0 4.0 0.00 0.00 0.00 58 1017.5
20260905200107 83 0 0.0 2.0 0.00 0.00 0.00 59 1017.4
20260905194605 83 0 0.0 0.0 0.00 0.00 0.00 59 1017.3
20260905193104 84 0 0.0 0.0 0.00 0.00 0.00 58 1017.1
20260905191611 85 0 0.0 0.0 0.00 0.00 0.00 56 1016.8
20260905190138 85 0 0.0 0.0 0.00 0.00 0.00 55 1016.5
20260905184623 86 0 0.0 0.0 0.00 0.00 0.00 55 1016.4
20260905183106 87 0 0.0 0.0 0.00 0.00 0.00 53 1016.1
20260905181604 88 0 0.0 2.0 0.00 0.00 0.00 51 1015.9
20260905180108 90 0 0.0 1.0 0.00 0.00 0.00 50 1015.7
20260905174606 91 0 0.0 1.0 0.00 0.00 0.00 47 1015.6
20260905173113 93 0 0.0 1.0 0.00 0.00 0.00 46 1015.5
20260905171607 94 0 0.0 2.0 0.00 0.00 0.00 44 1015.4
20260905170123 94 0 0.0 3.0 0.00 0.00 0.00 42 1015.4
20260905164606 96 0 0.0 3.0 0.00 0.00 0.00 42 1015.3
20260905163112 97 0 0.0 3.0 0.00 0.00 0.00 39 1015.2
20260905161608 98 322 0.0 3.0 0.00 0.00 0.00 38 1015.2
20260905160110 98 290 0.0 3.0 0.00 0.00 0.00 37 1015.0
20260905154609 98 332 0.0 4.0 0.00 0.00 0.00 38 1015.1
20260905153109 98 355 1.0 4.0 0.00 0.00 0.00 37 1015.1
20260905151605 98 186 1.0 7.0 0.00 0.00 0.00 38 1015.1
20260905150105 98 0 1.0 6.0 0.00 0.00 0.00 37 1015.2
20260905144606 98 346 1.0 5.0 0.00 0.00 0.00 38 1015.2
20260905143107 98 302 1.0 4.0 0.00 0.00 0.00 37 1015.3
20260905141630 98 239 2.0 7.0 0.00 0.00 0.00 38 1015.6
20260905140109 97 290 2.0 7.0 0.00 0.00 0.00 37 1015.8
20260905134604 97 295 2.0 8.0 0.00 0.00 0.00 38 1015.9
20260905133105 97 323 2.0 7.0 0.00 0.00 0.00 37 1015.9
20260905131632 96 232 1.0 7.0 0.00 0.00 0.00 37 1016.0
20260905130123 96 219 1.0 8.0 0.00 0.00 0.00 39 1016.1
20260905124614 96 0 1.0 4.0 0.00 0.00 0.00 39 1016.4
20260905123112 95 207 1.0 4.0 0.00 0.00 0.00 37 1016.6
20260905121606 95 297 1.0 6.0 0.00 0.00 0.00 37 1016.6
20260905120127 94 272 1.0 7.0 0.00 0.00 0.00 36 1017.0
20260905114624 93 311 1.0 4.0 0.00 0.00 0.00 38 1016.9
20260905113126 93 259 1.0 5.0 0.00 0.00 0.00 37 1016.8
20260905111619 93 132 0.0 6.0 0.00 0.00 0.00 37 1016.8
20260905110104 93 273 1.0 3.0 0.00 0.00 0.00 38 1017.0